When you browse on this site, cookies collect data to enhance your experience and personalize the content and advertising you see.
Visit our Privacy Policy to learn more. By continuing to use the site, you agree to this use of cookies and data.
  • In Belgien
  • Länderverzeichnis
  • Für 7 Tage
  • Wassertemperatur
  • Satellitenkarten
  • Wetterkarte
  • Widgets
  • user-avatar
    Anmelden

    Stündliche Wetter Lüttich

    Heute, 20 Januar, Sonntag

    Zeit Temperatur Niederschläge Wind Luftdruck Luftfeuchtigkeit
    00:00 -3°C° 0 mm 2 m/S 750 mmHg 71%
    01:00 -3°C° 0 mm 2 m/S 750 mmHg 70%
    02:00 -3°C° 0 mm 2 m/S 750 mmHg 70%
    03:00 -3°C° 0 mm 2 m/S 750 mmHg 70%
    04:00 -2°C° 0 mm 1 m/S 750 mmHg 69%
    05:00 -2°C° 0 mm 1 m/S 751 mmHg 69%
    06:00 -2°C° 0 mm 1 m/S 751 mmHg 68%
    07:00 -1°C° 0 mm 1 m/S 751 mmHg 65%
    08:00 -1°C° 0 mm 1 m/S 752 mmHg 63%
    09:00 0°C° 0 mm 1 m/S 752 mmHg 60%
    10:00 -1°C° 0 mm 2 m/S 752 mmHg 55%
    11:00 +1°C° 0 mm 2 m/S 752 mmHg 51%
    12:00 +2°C° 0 mm 2 m/S 753 mmHg 46%
    13:00 +2°C° 0 mm 2 m/S 753 mmHg 49%
    14:00 +2°C° 0 mm 2 m/S 753 mmHg 52%
    15:00 +2°C° 0 mm 2 m/S 753 mmHg 55%
    16:00 -1°C° 0 mm 2 m/S 754 mmHg 59%
    17:00 -2°C° 0 mm 2 m/S 754 mmHg 64%
    18:00 -3°C° 0 mm 2 m/S 755 mmHg 69%
    19:00 -3°C° 0 mm 2 m/S 755 mmHg 69%
    20:00 -1°C° 0 mm 1 m/S 756 mmHg 69%
    21:00 -1°C° 0 mm 1 m/S 756 mmHg 69%
    22:00 -1°C° 0 mm 1 m/S 757 mmHg 68%
    23:00 -1°C° 0 mm 1 m/S 757 mmHg 67%

    Morgen, 21 Januar, Montag

    Zeit Temperatur Niederschläge Wind Luftdruck Luftfeuchtigkeit
    00:00 -1°C° 0 mm 1 m/S 757 mmHg 66%
    01:00 -1°C° 0 mm 1 m/S 757 mmHg 64%
    02:00 -2°C° 0 mm 1 m/S 757 mmHg 63%
    03:00 -3°C° 0 mm 0 m/S 757 mmHg 61%
    04:00 -3°C° 0 mm 0 m/S 758 mmHg 60%
    05:00 -3°C° 0 mm 0 m/S 758 mmHg 59%
    06:00 -3°C° 0 mm 0 m/S 758 mmHg 57%
    07:00 -2°C° 0 mm 0 m/S 758 mmHg 54%
    08:00 -1°C° 0 mm 0 m/S 758 mmHg 51%
    09:00 -1°C° 0 mm 0 m/S 759 mmHg 48%
    10:00 0°C° 0 mm 0 m/S 758 mmHg 45%
    11:00 +1°C° 0 mm 0 m/S 758 mmHg 41%
    12:00 +3°C° 0 mm 0 m/S 758 mmHg 38%
    13:00 +2°C° 0 mm 0 m/S 757 mmHg 41%
    14:00 +3°C° 0 mm 1 m/S 757 mmHg 44%
    15:00 +2°C° 0 mm 1 m/S 757 mmHg 47%
    16:00 +2°C° 0 mm 1 m/S 756 mmHg 49%
    17:00 +1°C° 0 mm 1 m/S 756 mmHg 51%
    18:00 0°C° 0 mm 1 m/S 756 mmHg 53%
    19:00 -3°C° 0 mm 2 m/S 756 mmHg 54%
    20:00 -3°C° 0 mm 2 m/S 755 mmHg 54%
    21:00 -3°C° 0 mm 2 m/S 755 mmHg 55%
    22:00 -4°C° 0 mm 3 m/S 754 mmHg 55%
    23:00 -4°C° 0 mm 3 m/S 753 mmHg 55%

    übermorgen, 22 Januar, Dienstag

    Zeit Temperatur Niederschläge Wind Luftdruck Luftfeuchtigkeit
    00:00 -4°C° 0 mm 4 m/S 753 mmHg 55%
    01:00 -3°C° 0 mm 4 m/S 752 mmHg 55%
    02:00 -4°C° 0 mm 5 m/S 751 mmHg 54%
    03:00 -4°C° 0 mm 5 m/S 750 mmHg 54%
    04:00 -4°C° 0 mm 6 m/S 748 mmHg 52%
    05:00 -3°C° 0 mm 6 m/S 747 mmHg 51%
    06:00 -3°C° 0 mm 7 m/S 746 mmHg 50%
    07:00 -3°C° 0 mm 7 m/S 745 mmHg 50%
    08:00 -4°C° 0 mm 8 m/S 744 mmHg 50%
    09:00 -2°C° 0 mm 8 m/S 743 mmHg 50%
    10:00 -2°C° 0.4 mm 8 m/S 743 mmHg 61%
    11:00 -3°C° 0.4 mm 7 m/S 742 mmHg 71%
    12:00 -3°C° 0.4 mm 7 m/S 741 mmHg 81%
    13:00 -3°C° 0.4 mm 6 m/S 740 mmHg 83%
    14:00 -2°C° 0.4 mm 5 m/S 740 mmHg 85%
    15:00 -2°C° 0.4 mm 4 m/S 739 mmHg 87%
    16:00 -1°C° 0.6 mm 3 m/S 739 mmHg 90%
    17:00 -1°C° 0.6 mm 2 m/S 739 mmHg 93%
    18:00 -2°C° 0.6 mm 2 m/S 739 mmHg 95%
    19:00 -2°C° 0.3 mm 2 m/S 739 mmHg 96%
    20:00 0°C° 0.3 mm 1 m/S 739 mmHg 96%
    21:00 0°C° 0.3 mm 1 m/S 739 mmHg 96%
    22:00 0°C° 0.1 mm 1 m/S 739 mmHg 96%
    23:00 0°C° 0.1 mm 1 m/S 739 mmHg 96%

    23 Januar, Mittwoch

    Zeit Temperatur Niederschläge Wind Luftdruck Luftfeuchtigkeit
    00:00 -2°C° 0.1 mm 2 m/S 739 mmHg 96%
    01:00 0°C° 0 mm 1 m/S 739 mmHg 96%
    02:00 -1°C° 0 mm 1 m/S 739 mmHg 96%
    03:00 -1°C° 0 mm 1 m/S 739 mmHg 95%
    04:00 -2°C° 0 mm 1 m/S 739 mmHg 95%
    05:00 -2°C° 0 mm 1 m/S 739 mmHg 95%
    06:00 -2°C° 0 mm 1 m/S 739 mmHg 95%
    07:00 -2°C° 0 mm 1 m/S 740 mmHg 94%
    08:00 -2°C° 0 mm 1 m/S 740 mmHg 93%
    09:00 -1°C° 0 mm 1 m/S 741 mmHg 92%
    10:00 0°C° 0 mm 1 m/S 741 mmHg 90%
    11:00 +1°C° 0 mm 1 m/S 741 mmHg 88%
    12:00 +2°C° 0 mm 1 m/S 741 mmHg 86%
    13:00 +2°C° 0 mm 1 m/S 742 mmHg 88%
    14:00 +1°C° 0 mm 1 m/S 742 mmHg 89%
    15:00 +1°C° 0 mm 1 m/S 742 mmHg 90%
    16:00 0°C° 0 mm 1 m/S 743 mmHg 91%
    17:00 -1°C° 0 mm 1 m/S 743 mmHg 91%
    18:00 -3°C° 0 mm 0 m/S 744 mmHg 92%
    19:00 -2°C° 0 mm 1 m/S 744 mmHg 92%
    20:00 -2°C° 0 mm 1 m/S 745 mmHg 92%
    21:00 -2°C° 0 mm 1 m/S 745 mmHg 92%
    22:00 -2°C° 0 mm 1 m/S 746 mmHg 92%
    23:00 -2°C° 0 mm 1 m/S 746 mmHg 92%

    24 Januar, Donnerstag

    Zeit Temperatur Niederschläge Wind Luftdruck Luftfeuchtigkeit
    00:00 -2°C° 0 mm 1 m/S 746 mmHg 92%
    01:00 -2°C° 0 mm 1 m/S 747 mmHg 92%
    02:00 -2°C° 0 mm 1 m/S 747 mmHg 92%
    03:00 -2°C° 0 mm 1 m/S 747 mmHg 92%
    04:00 -2°C° 0 mm 1 m/S 747 mmHg 93%
    05:00 -2°C° 0 mm 1 m/S 748 mmHg 93%
    06:00 -3°C° 0 mm 1 m/S 748 mmHg 93%
    07:00 -2°C° 0 mm 1 m/S 749 mmHg 93%
    08:00 -2°C° 0 mm 0 m/S 749 mmHg 92%
    09:00 -1°C° 0 mm 0 m/S 750 mmHg 91%
    10:00 +1°C° 0 mm 1 m/S 750 mmHg 90%
    11:00 +1°C° 0 mm 1 m/S 751 mmHg 89%
    12:00 +2°C° 0 mm 1 m/S 751 mmHg 89%
    13:00 +2°C° 0 mm 1 m/S 751 mmHg 90%
    14:00 +2°C° 0 mm 1 m/S 751 mmHg 91%
    15:00 +2°C° 0 mm 1 m/S 751 mmHg 92%
    16:00 +1°C° 0 mm 1 m/S 752 mmHg 94%
    17:00 0°C° 0 mm 1 m/S 753 mmHg 95%
    18:00 -1°C° 0 mm 1 m/S 753 mmHg 96%
    19:00 -1°C° 0 mm 1 m/S 754 mmHg 96%
    20:00 -3°C° 0 mm 0 m/S 754 mmHg 96%
    21:00 -3°C° 0 mm 0 m/S 755 mmHg 96%
    22:00 -3°C° 0 mm 0 m/S 755 mmHg 96%
    23:00 -3°C° 0 mm 0 m/S 755 mmHg 96%

    25 Januar, Freitag

    Zeit Temperatur Niederschläge Wind Luftdruck Luftfeuchtigkeit
    00:00 -4°C° 0 mm 0 m/S 756 mmHg 96%
    01:00 -4°C° 0 mm 0 m/S 756 mmHg 95%
    02:00 -4°C° 0 mm 0 m/S 756 mmHg 94%
    03:00 -4°C° 0 mm 0 m/S 756 mmHg 94%
    04:00 -4°C° 0 mm 0 m/S 756 mmHg 94%
    05:00 -4°C° 0 mm 0 m/S 757 mmHg 94%
    06:00 -4°C° 0 mm 0 m/S 757 mmHg 93%
    07:00 -4°C° 0 mm 0 m/S 758 mmHg 91%
    08:00 -3°C° 0 mm 0 m/S 758 mmHg 89%
    09:00 -3°C° 0 mm 0 m/S 758 mmHg 87%
    10:00 -2°C° 0 mm 0 m/S 758 mmHg 83%
    11:00 0°C° 0 mm 1 m/S 758 mmHg 79%
    12:00 +2°C° 0 mm 1 m/S 758 mmHg 74%
    13:00 +1°C° 0 mm 1 m/S 758 mmHg 77%
    14:00 +1°C° 0 mm 1 m/S 758 mmHg 80%
    15:00 +1°C° 0 mm 1 m/S 758 mmHg 82%
    16:00 0°C° 0 mm 1 m/S 758 mmHg 83%
    17:00 -1°C° 0 mm 1 m/S 758 mmHg 85%
    18:00 -1°C° 0 mm 1 m/S 759 mmHg 86%
    19:00 -3°C° 0 mm 2 m/S 759 mmHg 85%
    20:00 -3°C° 0 mm 2 m/S 759 mmHg 84%
    21:00 -3°C° 0 mm 2 m/S 759 mmHg 84%
    22:00 -3°C° 0 mm 2 m/S 759 mmHg 83%
    23:00 -4°C° 0 mm 3 m/S 758 mmHg 83%
    Mehr zeigen